STARLINK-34705

Last updated on Tue Aug 26 2025 00:02:05 GMT+0000 (Coordinated Universal Time)

1 64932U 25158A 25237.58390456 .00035044 00000+0 89603-3 0 9998 2 64932 97.6025 100.1006 0001605 88.2172 271.9256 15.39363992 5808

Satellite not in orbit

STARLINK-34705